Location: *
(43.0833°N, 13.0500°E)
Time: 00:05:39
(UTC+00:00)

NOAA 11 - Pass Details

Date: 15 November 2019
Orbit: 834 x 849 km, 98.4° (Epoch: 09 December)

Event Time Altitude Azimuth Distance (km) Brightness Sun altitude
Rises 18:02:27 0° 169° (SSE) 3,366 7.2 -25.2°
Reaches altitude 10° 18:04:48 10° 170° (S) 2,436 6.5 -25.6°
Maximum altitude 18:10:12 78° 257° (WSW) 858 4.2 -26.6°
Drops below altitude 10° 18:15:39 10° 344° (NNW) 2,456 6.8 -27.6°
Sets 18:18:02 0° 346° (NNW) 3,396 7.5 -28.0°
